This is the latest recevied weather packets stored in our database for station/object K5NOC-12. If no packets are shown the sender has not sent any weather packets the latest 10 day(s).
| Time | Temp. | Humidity | Pressure | Rain* | Wind** | Luminosity | Snow |
|---|---|---|---|---|---|---|---|
| 1788008637 | 22.22° C | 67% | 1020.9 hPa | 0 mm | - | - | - |
| 1788007736 | 22.22° C | 67% | 1020.8 hPa | 0 mm | - | - | - |
| 1788006836 | 22.22° C | 66% | 1020.8 hPa | 0 mm | - | - | - |
| 1788005936 | 22.22° C | 66% | 1020.6 hPa | 0 mm | - | - | - |
| 1788005036 | 22.22° C | 65% | 1020.8 hPa | 0 mm | - | - | - |
| 1788004136 | 22.22° C | 64% | 1020.9 hPa | 0 mm | - | - | - |
| 1788003236 | 22.22° C | 64% | 1020.7 hPa | 0 mm | - | - | - |
| 1788002336 | 22.22° C | 63% | 1020.8 hPa | 0 mm | - | - | - |
| 1788001435 | 22.22° C | 62% | 1020.8 hPa | 0 mm | - | - | - |
| 1788000535 | 22.22° C | 61% | 1020.8 hPa | 0 mm | - | - | - |
| 1787999635 | 22.22° C | 60% | 1020.8 hPa | 0 mm | - | - | - |
| 1787998735 | 22.78° C | 59% | 1020.8 hPa | 0 mm | - | - | - |
| 1787997835 | 22.78° C | 58% | 1020.7 hPa | 0 mm | - | - | - |
| 1787996935 | 22.78° C | 56% | 1020.8 hPa | 0 mm | - | - | - |
| 1787996035 | 22.78° C | 55% | 1020.7 hPa | 0 mm | - | - | - |
| 1787995135 | 23.33° C | 54% | 1020.7 hPa | 0 mm | - | - | - |
| 1787994234 | 23.33° C | 53% | 1020.6 hPa | 0 mm | - | - | - |
| 1787993334 | 23.89° C | 50% | 1020.7 hPa | 0 mm | - | - | - |
| 1787992434 | 24.44° C | 49% | 1020.8 hPa | 0 mm | - | - | - |
| 1787991534 | 23.89° C | 48% | 1020.8 hPa | 0 mm | - | - | - |
| 1787990634 | 24.44° C | 46% | 1021.1 hPa | 0 mm | - | - | - |
| 1787989734 | 24.44° C | 45% | 1020.9 hPa | 0 mm | - | - | - |
| 1787988834 | 25° C | 45% | 1021 hPa | 0 mm | - | - | - |
| 1787987934 | 24.44° C | 46% | 1021 hPa | 0 mm | - | - | - |
| 1787987034 | 24.44° C | 46% | 1021 hPa | 0 mm | - | - | - |
* Rain latest hour (hover to see other rain measurements)
** Current wind speed in m/s (hover to see current wind gust speed)